星链-30501 (STARLINK-30501 )

导读

STARLINK-30501是美国太空探索技术公司(SpaceX)星链互联网卫星星座中的一颗卫星,于2023年9月24日发射。星链项目旨在构建全球卫星互联网星座,为全球偏远地区、海洋空域等提供高速低延迟互联网服务,该卫星已在轨运行约2年半,是星链低轨星座组网建设的组成部分。

基本信息
目录编号:
57917
目录名称:
STARLINK-30501
国际标识:
2023-147E
轨道中心:
EARTH
卫星名称:
星链-30501
卫星全名:
星链-30501 (STARLINK-30501 )
卫星状态:
在轨 (已飞行1000 天)
发射日期:
2023-09-24 UTC
国别 :
美国 (US)
星等 :
--
轨道信息
数据来源 国际轨道数据 AOE轨道数据
星历时间 2026-06-19T20:31:29+0800
22小时前
查看轨道信息
2026-06-15T01:00:00+0800
5天前
查看轨道信息
半长轴 6861.205km 6861.315km
偏心率 0.0001426 0.0001213
轨道倾角 43.000° 43.000°
近地点辐角 253.892° 248.946°
升交点赤经 109.966° 137.152°
平近点角 106.178° 249.089°
近地点 482.089km 482.345km
远地点 484.047km 484.011km
周期 94.267分钟 94.269分钟
每日圈数 15.275739 15.275371
详细信息
固有亮度:
5
最大亮度:
0.3
卫星平台:
Starlink v2.0 mini
覆盖范围:
全球
运营商:
太空探索技术公司
运营商所在国:
美国
制造商(研发单位):
太空探索技术公司
制造商所在国:
美国
使用方式:
暂无
卫星简介
星链(Starlink)计划是由太空探索技术公司(SpaceX)提出的一个巨型低轨卫星互联网星座项目,计划在2019年至2024年间在太空搭建由约1.2万颗卫星组成的“星链”网络,其中1584颗将部署在地球上空550千米处的近地轨道,并从2020年开始工作。该卫星仍在工作。
2D轨道图
3D轨道图
轨道高度分析图
轨道倾角分析图
轨道综合分析图
查看轨道综合分析图